sat.trackr.live / text

‹ back to catalog

STARLINK-5188

NORAD 54096 · 2022-136AX

PAYLOAD ACTIVE UNKNOWN

§ Identity

Operator
Country
US
Launch date
2022-10-20
Launch site
AFETR
Launch vehicle
Mass (kg)
RCS (m²)

Purposes: comms

External: N2YO · Heavens-Above · Gunter

§ Orbital elements

Epoch: 2026-09-20T22:00:03.000096Z

Period
94.52 min
Inclination
53.1597°
Eccentricity
0.0001041
Mean motion
15.23532484 rev/d
Perigee alt
494.5 km
Apogee alt
495.9 km
Semi-major
6,873.3 km
B*
4.1134e-4
RAAN
175.9205°
Arg perigee
69.5792°
Mean anomaly
263.4515°
Rev number
570

§ Raw data

STARLINK-51881 54096U 22136AX  26263.91670139  .00009631  00000+0  41134-3 0  99972 54096  53.1597 175.9205 0001041  69.5792 263.4515 15.23532484  5704

JSON: /api/v1/satellites/54096 · /tle

For live sub-satellite position, see the globe view (requires WebGL).

§ Visibility from observer

Set your observer location to see the next 7 days of passes ≥ 10°. The values pass through the URL so the page stays shareable.

No JS? Fill the form by hand. The geolocation button needs JavaScript.